EXPLORER 38 (RAE-A)

Satellite information

Favourite Embed

Satellite Type and Status

PAYLOADIN ORBIT

Key statistics

Satellite EXPLORER 38 (RAE-A) at a glance.

Uptime

20936

Days in orbit

Revolutions

≈ 6.4

Per day

Orbit

MEO

Medium Earth Orbit

Inclination

120.9

Latest

Satellite identification and parameters

Extended collection of information and parameters for EXPLORER 38 (RAE-A).

Object identification

Identified? True

Debris? False

Object name: EXPLORER 38 (RAE-A)

International designator: 1968-055A

Object number (NORAD): 3307

Object ID (CCSDS): 3307

Country: UNITED STATES OF AMERICA (US)

Current information (Y/N): Y

RCS size: LARGE

Orbital parameters

Period: 224.158 minutes

Inclination: 120.8799 deg

SMA: 12223.537 km

Apoapsis: 5857.529 km

Periapsis: 5833.275 km

RAAN: 41.1684 deg

Eccentricy: 0.00099209

Argument of periapsis: 260.3627 deg

Mean anomaly: 99.5854 deg

Mean motion: 6.4240281 rev/day

Mean motion (dot): -0.0000001 rev/day2

B* drag term: 0.0 1/REarth

Two-line elements (TLE)

Creation date: Oct. 28, 2025, 2:18 a.m.

Reference frame: TEME

Reference center: EARTH

Epoch: Oct. 27, 2025, 4:15 p.m. UTC

TLE line 0: 0 EXPLORER 38 (RAE-A)

TLE line 1: 1 03307U 68055A 25300.67733587 -.00000010 00000-0 00000-0 0 9995

TLE line 2: 2 03307 120.8799 41.1684 0009921 260.3627 99.5854 6.42402810344493

Live tracking on map

Real-time ground track for satellite EXPLORER 38 (RAE-A).

In-orbit conjunctions

There are no conjunctions computed for EXPLORER 38 (RAE-A), at the moment. Check back to stay up to date, as we update our databases every day.

Go to all conjunctions

Associated space launch

The RAE A (Radio Astronomy Explorer A) spacecraft measured the intensity of celestial radio sources, particularly the sun, as a function of time, direction, and frequency (0.2 to 20 MHz).

EXPLORER 38 (RAE-A) was lifted into orbit during the mission ‘Thor Delta J | RAE 1’, on board a Thor Delta J space rocket.

The launch took place on July 4, 1968, 5:26 p.m. from Space Launch Complex 2E.

For more information about the launch, click the button.

Launch to space Thor Delta J | RAE 1
Thor Delta J | RAE 1

Agency: N/A

Status: Launch Successful

Launch date: July 4, 1968, 5:26 p.m. UTC

Rocket: Thor Delta J

Launch pad: Space Launch Complex 2E

Location: Vandenberg SFB, CA, USA

...

Latest news about this satellite

There are no fresh news available about this satellite. Check back as we update our databases every day.


Newsletter sign-up

Weekly statistics, charts and insights to help you stay on top of the space industry.